Groton, CT

5:35 PM EDT on August 26, 2016 (GMT -0400)
Groton-New London

Weather History for KGON - December, 2012

Change the Weather History Date:

Sunday, December 16, 2012

  Actual Average Record
Temperature  
Mean Temperature 40 °F -  
Max Temperature 42 °F 44 °F 62 °F (1971)
Min Temperature 37 °F 27 °F 7 °F (1989)
Degree Days  
Heating Degree Days 26    
Moisture  
Dew Point 35 °F    
Average Humidity 84    
Maximum Humidity 93    
Minimum Humidity 68    
Precipitation  
Precipitation 0.03 in - - ()
Sea Level Pressure  
Sea Level Pressure 30.10 in    
Wind  
Wind Speed 13 mph (ENE)    
Max Wind Speed 20 mph    
Max Gust Speed 31 mph    
Visibility 4 miles    
Events Rain    
Averages and records for this station are not official NWS values.
T = Trace of Precipitation, MM = Missing Value Source: NWS Daily Summary

Daily Weather History Graph

Daily Weather History Graph

Search for Another Location

Airport or City:

Trip Planner

Search our weather history database for the weather conditions in past years. The results will help you decide how hot, cold, wet, or windy it might be!

Date:

Astronomy

Dec. 16, 2012 Rise Set
Actual Time 7:08 AM EST 4:20 PM EST
Civil Twilight 6:36 AM EST 4:51 PM EST
Nautical Twilight 6:01 AM EST 5:26 PM EST
Astronomical Twilight 5:28 AM EST 5:59 PM EST
Moon 9:37 AM EST (12/16) 8:33 PM EST (12/16)
Length of Visible Light 10h 14m
Length of Day
9h 12m
Waxing Crescent, 16% of the Moon is Illuminated
Dec 16
Waxing Crescent
Dec 20
First Quarter
Dec 28
Full
Jan 4
Last Quarter
Jan 11
New

Hourly Weather History & Observations

Time (EST) Temp. Windchill Dew Point Humidity Pressure Visibility Wind Dir Wind Speed Gust Speed Precip Events Conditions
12:56 AM 37.0 °F 29.8 °F 28.9 °F 73% 30.27 in 10.0 mi ENE 10.4 mph - N/A   Overcast
1:14 AM 37.4 °F 30.3 °F 28.4 °F 70% 30.27 in 10.0 mi NE 10.4 mph - N/A   Overcast
1:23 AM 37.4 °F 29.8 °F 28.4 °F 70% 30.26 in 10.0 mi ENE 11.5 mph - N/A   Overcast
1:56 AM 37.0 °F 29.3 °F 28.0 °F 70% 30.26 in 10.0 mi ENE 11.5 mph - N/A   Overcast
2:56 AM 37.0 °F 29.8 °F 28.0 °F 70% 30.27 in 10.0 mi ENE 10.4 mph - N/A   Overcast
3:56 AM 37.0 °F 29.3 °F 28.0 °F 70% 30.25 in 10.0 mi ENE 11.5 mph - N/A   Overcast
4:56 AM 37.0 °F 30.4 °F 28.0 °F 70% 30.23 in 10.0 mi ENE 9.2 mph - N/A   Overcast
5:56 AM 37.9 °F 30.5 °F 28.0 °F 68% 30.22 in 10.0 mi ENE 11.5 mph - N/A   Overcast
6:56 AM 37.9 °F 30.9 °F 28.9 °F 70% 30.23 in 10.0 mi ENE 10.4 mph - N/A   Overcast
7:56 AM 37.9 °F 31.5 °F 28.9 °F 70% 30.22 in 10.0 mi NE 9.2 mph - N/A   Overcast
8:56 AM 39.2 °F 33.0 °F 30.2 °F 70% 30.22 in 10.0 mi NE 9.2 mph - N/A   Overcast
9:56 AM 41.0 °F 32.8 °F 32.0 °F 70% 30.20 in 10.0 mi East 16.1 mph - N/A   Overcast
10:56 AM 41.0 °F 31.9 °F 33.1 °F 73% 30.18 in 7.0 mi East 19.6 mph 31.1 mph N/A   Overcast
11:56 AM 41.0 °F 32.8 °F 33.1 °F 73% 30.16 in 7.0 mi East 16.1 mph 26.5 mph N/A   Overcast
12:32 PM 39.2 °F 31.2 °F 35.6 °F 87% 30.15 in 2.5 mi East 13.8 mph 26.5 mph 0.00 in Rain Light Rain
12:56 PM 39.9 °F 32.1 °F 36.0 °F 86% 30.14 in 2.0 mi East 13.8 mph 24.2 mph 0.00 in Rain Light Rain
1:17 PM 39.2 °F 31.2 °F 35.6 °F 87% 30.13 in 1.8 mi East 13.8 mph - 0.00 in Rain Light Rain
1:52 PM 39.2 °F 30.8 °F 35.6 °F 87% 30.13 in 2.0 mi ENE 15.0 mph 24.2 mph 0.00 in Rain Light Rain
1:56 PM 39.0 °F 31.0 °F 36.0 °F 89% 30.12 in 2.0 mi ENE 13.8 mph 20.7 mph 0.00 in Rain Light Rain
2:11 PM 39.2 °F 30.8 °F 35.6 °F 87% 30.12 in 1.8 mi East 15.0 mph 21.9 mph 0.00 in Rain Light Rain
2:56 PM 39.0 °F 31.0 °F 36.0 °F 89% 30.10 in 1.8 mi ENE 13.8 mph 20.7 mph 0.00 in Rain Light Rain
3:19 PM 39.2 °F 31.2 °F 37.4 °F 93% 30.10 in 2.0 mi East 13.8 mph - 0.00 in Rain Light Rain
3:35 PM 39.2 °F 30.5 °F 37.4 °F 93% 30.09 in 1.5 mi ENE 16.1 mph - 0.00 in Rain Light Rain
3:56 PM 39.0 °F 32.3 °F 37.0 °F 93% 30.09 in 2.0 mi ENE 10.4 mph 19.6 mph 0.00 in Rain Light Rain
4:19 PM 39.2 °F 32.0 °F 37.4 °F 93% 30.08 in 3.0 mi ENE 11.5 mph - 0.00 in Rain Light Rain
4:56 PM 39.9 °F 32.5 °F 37.0 °F 89% 30.07 in 3.0 mi East 12.7 mph - 0.00 in Rain Light Rain
5:56 PM 39.9 °F 31.1 °F 37.9 °F 93% 30.04 in 3.0 mi East 17.3 mph 26.5 mph 0.01 in Rain Light Rain
5:58 PM 41.0 °F 32.5 °F 37.4 °F 87% 30.04 in 2.5 mi East 17.3 mph 26.5 mph 0.00 in Rain Light Rain
6:56 PM 41.0 °F 33.1 °F 39.0 °F 93% 30.04 in 2.0 mi East 15.0 mph 24.2 mph 0.00 in Rain Light Rain
7:25 PM 41.0 °F 32.2 °F 39.2 °F 93% 30.04 in 1.8 mi ENE 18.4 mph 21.9 mph 0.00 in Rain Light Rain
7:39 PM 41.0 °F 33.1 °F 39.2 °F 93% 30.03 in 2.0 mi East 15.0 mph 23.0 mph 0.01 in Rain Light Rain
7:56 PM 41.0 °F 33.1 °F 39.0 °F 93% 30.01 in 2.0 mi ENE 15.0 mph 25.3 mph 0.01 in Rain Light Rain
8:48 PM 42.8 °F 35.8 °F 39.2 °F 87% 30.01 in 3.0 mi East 13.8 mph 26.5 mph 0.00 in Rain Light Rain
8:56 PM 42.1 °F 34.2 °F 39.0 °F 89% 30.00 in 3.0 mi East 16.1 mph 24.2 mph 0.00 in Rain Light Rain
9:11 PM 41.0 °F 32.5 °F 39.2 °F 93% 30.00 in 2.5 mi ENE 17.3 mph 23.0 mph 0.00 in Rain Light Rain
9:18 PM 41.0 °F 33.9 °F 39.2 °F 93% 30.00 in 2.0 mi ENE 12.7 mph 23.0 mph 0.00 in Rain Light Rain
9:32 PM 41.0 °F 33.1 °F 39.2 °F 93% 30.00 in 3.0 mi ENE 15.0 mph 23.0 mph 0.00 in Rain Light Rain
9:47 PM 41.0 °F 33.9 °F 37.4 °F 87% 29.99 in 1.8 mi ENE 12.7 mph 20.7 mph 0.01 in Rain Light Rain
9:56 PM 41.0 °F 33.5 °F 37.9 °F 89% 29.99 in 2.5 mi ENE 13.8 mph - 0.01 in Rain Light Rain
10:00 PM 41.0 °F 33.1 °F 37.4 °F 87% 29.99 in 3.0 mi ENE 15.0 mph - 0.00 in Rain Light Rain
10:10 PM 41.0 °F 33.1 °F 37.4 °F 87% 29.99 in 2.5 mi NE 15.0 mph - 0.00 in Rain Light Rain
10:25 PM 41.0 °F 34.3 °F 37.4 °F 87% 29.99 in 1.8 mi ENE 11.5 mph - 0.00 in Rain Light Rain
10:32 PM 41.0 °F 33.5 °F 37.4 °F 87% 29.99 in 3.0 mi ENE 13.8 mph 20.7 mph 0.00 in Rain Light Rain
10:56 PM 41.0 °F 33.9 °F 37.9 °F 89% 29.99 in 3.0 mi NE 12.7 mph - 0.00 in Rain Light Rain
11:09 PM 41.0 °F 33.9 °F 37.4 °F 87% 29.98 in 3.0 mi NE 12.7 mph - 0.00 in   Overcast
11:24 PM 41.0 °F 33.5 °F 37.4 °F 87% 29.98 in 3.0 mi NE 13.8 mph - 0.00 in   Overcast
11:56 PM 41.0 °F 33.1 °F 37.9 °F 89% 29.98 in 4.0 mi ENE 15.0 mph - 0.00 in   Overcast